sat.trackr.live / text

‹ back to catalog

STARLINK-3325

NORAD 50843 · 2022-001AS

PAYLOAD ACTIVE UNKNOWN

§ Identity

Operator
Country
US
Launch date
2022-01-06
Launch site
AFETR
Launch vehicle
Mass (kg)
RCS (m²)

Purposes: comms

External: N2YO · Heavens-Above · Gunter

§ Orbital elements

Epoch: 2026-05-22T13:08:22.178688Z

Period
88.49 min
Inclination
53.2069°
Eccentricity
0.0008262
Mean motion
16.27218699 rev/d
Perigee alt
194.6 km
Apogee alt
205.5 km
Semi-major
6,578.2 km
B*
6.1579e-4
RAAN
162.4605°
Arg perigee
10.0713°
Mean anomaly
350.0495°
Rev number
24,204

§ Raw data

STARLINK-33251 50843U 22001AS  26142.54747892  .02247048  12020-4  61579-3 0  99932 50843  53.2069 162.4605 0008262  10.0713 350.0495 16.27218699242040

JSON: /api/v1/satellites/50843 · /tle

For live sub-satellite position, see the globe view (requires WebGL).

§ Visibility from observer

Set your observer location to see the next 7 days of passes ≥ 10°. The values pass through the URL so the page stays shareable.

No JS? Fill the form by hand. The geolocation button needs JavaScript.